time, Switch, Flow(0), Analog(2)
yyyy/mm/dd HH:MM:SS.fff, True=FILTERED|False=TOTAL, L/min, V
2023/06/19 05:00:01.076, True, 4.718, 0.134890
2023/06/19 05:00:01.580, True, 4.975, 0.134356
2023/06/19 05:00:02.084, True, 4.641, 0.132219
2023/06/19 05:00:02.580, True, 4.717, 0.132906
2023/06/19 05:00:03.084, True, 4.311, 0.131991
2023/06/19 05:00:03.588, True, 3.980, 0.131914
2023/06/19 05:00:04.084, True, 3.032, 0.132296
2023/06/19 05:00:04.588, True, 2.656, 0.134051
2023/06/19 05:00:05.092, True, 2.318, 0.132525
2023/06/19 05:00:05.588, True, 2.695, 0.132219
2023/06/19 05:00:06.092, True, 2.321, 0.132982
2023/06/19 05:00:06.596, True, 1.990, 0.135271
2023/06/19 05:00:07.092, True, 2.358, 0.133822
2023/06/19 05:00:07.596, True, 2.322, 0.132372
2023/06/19 05:00:08.100, True, 1.990, 0.131838
2023/06/19 05:00:08.596, True, 2.359, 0.134127
2023/06/19 05:00:09.100, True, 2.325, 0.132677
2023/06/19 05:00:09.604, True, 2.317, 0.135119
2023/06/19 05:00:10.100, True, 2.359, 0.133364
2023/06/19 05:00:10.604, True, 2.321, 0.133898
2023/06/19 05:00:11.108, True, 2.321, 0.131228
2023/06/19 05:00:11.612, True, 2.321, 0.133364
2023/06/19 05:00:12.108, True, 2.023, 0.133440
2023/06/19 05:00:12.612, True, 2.319, 0.134585
2023/06/19 05:00:13.116, True, 2.322, 0.131380
2023/06/19 05:00:13.612, True, 2.358, 0.131914
2023/06/19 05:00:14.116, True, 2.653, 0.134432
2023/06/19 05:00:14.619, True, 2.321, 0.131609
2023/06/19 05:00:15.116, True, 2.362, 0.133440
2023/06/19 05:00:15.620, True, 2.319, 0.132372
2023/06/19 05:00:16.116, True, 2.695, 0.130312
2023/06/19 05:00:16.620, True, 2.321, 0.134356
2023/06/19 05:00:17.124, True, 2.321, 0.134203
2023/06/19 05:00:17.628, True, 2.321, 0.130999
2023/06/19 05:00:18.124, True, 2.359, 0.134051
2023/06/19 05:00:18.628, True, 2.324, 0.134356
2023/06/19 05:00:19.132, True, 2.323, 0.130236
2023/06/19 05:00:19.627, True, 2.359, 0.133669
2023/06/19 05:00:20.132, True, 2.322, 0.132830
2023/06/19 05:00:20.635, True, 2.321, 0.131533
2023/06/19 05:00:21.132, True, 2.354, 0.133745
2023/06/19 05:00:21.636, True, 2.321, 0.133516
2023/06/19 05:00:22.140, True, 2.322, 0.132296
2023/06/19 05:00:22.644, True, 2.320, 0.131075
2023/06/19 05:00:23.140, True, 2.022, 0.134432
2023/06/19 05:00:23.644, True, 2.321, 0.132143
2023/06/19 05:00:24.148, True, 2.322, 0.132219
2023/06/19 05:00:24.644, True, 2.358, 0.133364
2023/06/19 05:00:25.148, True, 1.989, 0.133211
2023/06/19 05:00:25.644, True, 2.359, 0.134279
2023/06/19 05:00:26.148, True, 2.321, 0.133669
2023/06/19 05:00:26.652, True, 1.992, 0.133974
2023/06/19 05:00:27.156, True, 2.318, 0.132753
2023/06/19 05:00:27.652, True, 2.359, 0.133593
2023/06/19 05:00:28.156, True, 2.321, 0.133211
2023/06/19 05:00:28.660, True, 2.321, 0.135042
2023/06/19 05:00:29.156, True, 2.021, 0.134585
2023/06/19 05:00:29.660, True, 2.322, 0.131685
2023/06/19 05:00:30.164, True, 2.321, 0.132296
2023/06/19 05:00:30.660, True, 2.359, 0.132448
2023/06/19 05:00:31.164, True, 2.321, 0.135805
2023/06/19 05:00:31.668, True, 2.322, 0.134966
2023/06/19 05:00:32.164, True, 2.022, 0.133364
2023/06/19 05:00:32.668, True, 2.320, 0.133135
2023/06/19 05:00:33.164, True, 2.359, 0.138094
2023/06/19 05:00:33.668, True, 1.990, 0.138933
2023/06/19 05:00:34.172, True, 2.322, 0.139620
2023/06/19 05:00:34.676, True, 2.321, 0.137560
2023/06/19 05:00:35.172, True, 2.359, 0.138476
2023/06/19 05:00:35.675, True, 1.992, 0.137560
2023/06/19 05:00:36.180, True, 2.318, 0.137560
2023/06/19 05:00:36.676, True, 2.364, 0.139010
2023/06/19 05:00:37.180, True, 2.317, 0.138094
2023/06/19 05:00:37.684, True, 2.324, 0.137789
2023/06/19 05:00:38.180, True, 2.356, 0.138933
2023/06/19 05:00:38.684, True, 2.321, 0.139544
2023/06/19 05:00:39.188, True, 1.989, 0.138247
2023/06/19 05:00:39.684, True, 2.359, 0.140764
2023/06/19 05:00:40.188, True, 2.321, 0.141375
2023/06/19 05:00:40.692, True, 2.322, 0.137713
2023/06/19 05:00:41.188, True, 2.358, 0.140154
2023/06/19 05:00:41.692, True, 2.321, 0.142977
2023/06/19 05:00:42.196, True, 2.652, 0.140841
2023/06/19 05:00:42.692, True, 2.359, 0.141985
2023/06/19 05:00:43.196, True, 2.321, 0.143359
2023/06/19 05:00:43.700, True, 2.653, 0.141756
2023/06/19 05:00:44.196, True, 2.359, 0.140536
2023/06/19 05:00:44.700, True, 2.321, 0.140917
2023/06/19 05:00:45.203, True, 2.321, 0.141222
2023/06/19 05:00:45.699, True, 2.022, 0.140383
2023/06/19 05:00:46.204, True, 2.321, 0.141985
2023/06/19 05:00:46.707, True, 2.321, 0.142596
2023/06/19 05:00:47.204, True, 2.359, 0.140612
2023/06/19 05:00:47.708, True, 2.321, 0.142443
2023/06/19 05:00:48.212, True, 2.321, 0.140917
2023/06/19 05:00:48.707, True, 2.359, 0.141375
2023/06/19 05:00:49.212, True, 2.321, 0.142596
2023/06/19 05:00:49.716, True, 2.321, 0.140841
2023/06/19 05:00:50.212, True, 2.361, 0.140307
2023/06/19 05:00:50.716, True, 2.319, 0.140459
2023/06/19 05:00:51.220, True, 2.321, 0.141985
2023/06/19 05:00:51.724, True, 2.325, 0.143587
2023/06/19 05:00:52.220, True, 2.356, 0.140688
2023/06/19 05:00:52.724, True, 2.321, 0.142443
2023/06/19 05:00:53.228, True, 2.325, 0.142214
2023/06/19 05:00:53.724, True, 2.356, 0.141222
2023/06/19 05:00:54.228, True, 2.320, 0.139620
2023/06/19 05:00:54.723, True, 2.359, 0.142901
2023/06/19 05:00:55.227, True, 2.321, 0.141680
2023/06/19 05:00:55.732, True, 2.321, 0.140230
2023/06/19 05:00:56.235, True, 2.324, 0.141146
2023/06/19 05:00:56.732, True, 2.021, 0.140612
2023/06/19 05:00:57.236, True, 2.322, 0.139620
2023/06/19 05:00:57.739, True, 1.987, 0.140459
2023/06/19 05:00:58.236, True, 2.024, 0.139162
2023/06/19 05:00:58.740, True, 2.322, 0.139086
2023/06/19 05:00:59.244, True, 1.986, 0.140917
2023/06/19 05:00:59.739, True, 2.363, 0.142138
2023/06/19 05:01:00.243, True, 2.321, 0.142824
2023/06/19 05:01:00.747, True, 2.321, 0.141909
2023/06/19 05:01:01.244, True, 2.018, 0.141375
2023/06/19 05:01:01.748, True, 1.990, 0.140612
2023/06/19 05:01:02.252, True, 2.324, 0.141909
2023/06/19 05:01:02.748, True, 2.360, 0.141604
2023/06/19 05:01:03.252, True, 1.986, 0.140688
2023/06/19 05:01:03.756, True, 2.321, 0.143969
2023/06/19 05:01:04.252, True, 2.362, 0.141070
2023/06/19 05:01:04.756, True, 1.987, 0.140917
2023/06/19 05:01:05.260, True, 2.321, 0.140993
2023/06/19 05:01:05.756, True, 2.359, 0.139925
2023/06/19 05:01:06.260, True, 1.990, 0.140841
2023/06/19 05:01:06.764, True, 2.320, 0.141527
2023/06/19 05:01:07.260, True, 2.359, 0.140154
2023/06/19 05:01:07.764, True, 2.322, 0.140307
2023/06/19 05:01:08.268, True, 2.321, 0.140841
2023/06/19 05:01:08.764, True, 2.359, 0.140764
2023/06/19 05:01:09.268, True, 2.321, 0.139620
2023/06/19 05:01:09.764, True, 2.360, 0.141146
2023/06/19 05:01:10.268, True, 2.320, 0.142596
2023/06/19 05:01:10.772, True, 2.322, 0.141985
2023/06/19 05:01:11.268, True, 2.361, 0.140764
2023/06/19 05:01:11.772, True, 2.320, 0.140459
2023/06/19 05:01:12.276, True, 2.319, 0.142138
2023/06/19 05:01:12.771, True, 2.361, 0.141375
2023/06/19 05:01:13.276, True, 2.321, 0.140078
2023/06/19 05:01:13.780, True, 2.320, 0.140536
2023/06/19 05:01:14.276, True, 2.358, 0.141985
2023/06/19 05:01:14.780, True, 1.990, 0.142977
2023/06/19 05:01:15.276, True, 2.361, 0.139315
2023/06/19 05:01:15.780, True, 2.323, 0.141070
2023/06/19 05:01:16.284, True, 2.317, 0.139391
2023/06/19 05:01:16.780, True, 2.361, 0.139620
2023/06/19 05:01:17.284, True, 2.319, 0.139773
2023/06/19 05:01:17.788, True, 2.321, 0.141680
2023/06/19 05:01:18.284, True, 2.361, 0.140536
2023/06/19 05:01:18.788, True, 2.319, 0.138857
2023/06/19 05:01:19.292, True, 2.321, 0.138933
2023/06/19 05:01:19.788, True, 2.359, 0.142824
2023/06/19 05:01:20.292, True, 2.321, 0.141756
2023/06/19 05:01:20.796, True, 1.990, 0.139925
2023/06/19 05:01:21.292, True, 2.358, 0.138933
2023/06/19 05:01:21.796, True, 2.321, 0.140688
2023/06/19 05:01:22.300, True, 1.990, 0.140383
2023/06/19 05:01:22.796, True, 2.359, 0.140459
2023/06/19 05:01:23.300, True, 2.321, 0.141222
2023/06/19 05:01:23.804, True, 2.321, 0.140612
2023/06/19 05:01:24.300, True, 2.358, 0.140612
2023/06/19 05:01:24.804, True, 2.321, 0.140917
2023/06/19 05:01:25.300, True, 2.021, 0.141451
2023/06/19 05:01:25.804, True, 2.322, 0.142290
2023/06/19 05:01:26.308, True, 1.989, 0.140993
2023/06/19 05:01:26.804, True, 2.363, 0.139162
2023/06/19 05:01:27.307, True, 2.317, 0.139162
2023/06/19 05:01:27.812, True, 2.322, 0.141070
2023/06/19 05:01:28.308, True, 2.358, 0.141604
2023/06/19 05:01:28.812, True, 2.321, 0.140993
2023/06/19 05:01:29.316, True, 2.323, 0.143359
2023/06/19 05:01:29.812, True, 2.020, 0.140230
2023/06/19 05:01:30.316, True, 2.321, 0.140917
2023/06/19 05:01:30.820, True, 2.321, 0.139239
2023/06/19 05:01:31.316, True, 2.359, 0.140612
2023/06/19 05:01:31.820, True, 2.321, 0.141604
2023/06/19 05:01:32.324, True, 2.322, 0.142138
2023/06/19 05:01:32.820, True, 2.359, 0.140612
2023/06/19 05:01:33.324, True, 2.322, 0.139467
2023/06/19 05:01:33.828, True, 2.321, 0.138323
2023/06/19 05:01:34.323, True, 2.358, 0.141451
2023/06/19 05:01:34.828, True, 2.321, 0.138323
2023/06/19 05:01:35.324, True, 2.358, 0.139849
2023/06/19 05:01:35.828, True, 2.322, 0.140230
2023/06/19 05:01:36.332, True, 1.990, 0.140078
2023/06/19 05:01:36.828, True, 2.361, 0.141222
2023/06/19 05:01:37.332, True, 2.319, 0.140078
2023/06/19 05:01:37.836, True, 2.321, 0.137560
2023/06/19 05:01:38.332, True, 2.359, 0.139620
2023/06/19 05:01:38.836, True, 2.321, 0.138476
2023/06/19 05:01:39.332, True, 2.359, 0.138933
2023/06/19 05:01:39.836, True, 2.321, 0.137713
2023/06/19 05:01:40.340, True, 2.321, 0.140307
2023/06/19 05:01:40.836, True, 2.358, 0.138933
2023/06/19 05:01:41.340, True, 2.321, 0.139010
2023/06/19 05:01:41.844, True, 2.322, 0.137636
2023/06/19 05:01:42.340, True, 2.021, 0.139925
2023/06/19 05:01:42.844, True, 2.322, 0.141451
2023/06/19 05:01:43.348, True, 2.323, 0.137560
2023/06/19 05:01:43.852, True, 2.318, 0.137865
2023/06/19 05:01:44.347, True, 2.359, 0.139620
2023/06/19 05:01:44.852, True, 2.321, 0.139010
2023/06/19 05:01:45.356, True, 1.989, 0.138247
2023/06/19 05:01:45.852, True, 2.359, 0.137789
2023/06/19 05:01:46.356, True, 2.325, 0.137865
2023/06/19 05:01:46.860, True, 2.318, 0.138628
2023/06/19 05:01:47.356, True, 2.359, 0.140917
2023/06/19 05:01:47.860, True, 1.989, 0.137865
2023/06/19 05:01:48.364, True, 2.322, 0.140230
2023/06/19 05:01:48.860, True, 2.358, 0.137865
2023/06/19 05:01:49.364, True, 2.321, 0.140078
2023/06/19 05:01:49.868, True, 2.322, 0.140612
2023/06/19 05:01:50.364, True, 2.357, 0.138018
2023/06/19 05:01:50.868, True, 2.325, 0.139391
2023/06/19 05:01:51.372, True, 2.317, 0.138170
2023/06/19 05:01:51.868, True, 2.359, 0.137255
2023/06/19 05:01:52.372, True, 2.321, 0.140230
2023/06/19 05:01:52.876, True, 2.321, 0.139620
2023/06/19 05:01:53.372, True, 2.359, 0.140536
2023/06/19 05:01:53.876, True, 2.321, 0.140993
2023/06/19 05:01:54.380, True, 1.989, 0.137713
2023/06/19 05:01:54.876, True, 2.359, 0.140002
2023/06/19 05:01:55.380, True, 2.322, 0.139925
2023/06/19 05:01:55.884, True, 2.320, 0.137255
2023/06/19 05:01:56.380, True, 2.359, 0.138094
2023/06/19 05:01:56.884, True, 2.321, 0.138933
2023/06/19 05:01:57.388, True, 2.321, 0.138018
2023/06/19 05:01:57.884, True, 2.359, 0.138247
2023/06/19 05:01:58.388, True, 2.321, 0.137713
2023/06/19 05:01:58.892, True, 2.322, 0.139086
2023/06/19 05:01:59.388, True, 2.358, 0.137331
2023/06/19 05:01:59.891, True, 2.323, 0.139391
2023/06/19 05:02:00.396, True, 2.320, 0.137636
2023/06/19 05:02:00.892, True, 2.021, 0.138247
2023/06/19 05:02:01.396, True, 2.322, 0.138781
2023/06/19 05:02:01.892, True, 2.358, 0.136416
2023/06/19 05:02:02.396, True, 2.322, 0.139239
2023/06/19 05:02:02.900, True, 1.989, 0.138476
2023/06/19 05:02:03.403, True, 2.321, 0.136339
2023/06/19 05:02:03.899, True, 2.362, 0.138781
2023/06/19 05:02:04.403, True, 1.987, 0.138323
2023/06/19 05:02:04.908, True, 2.321, 0.138781
2023/06/19 05:02:05.404, True, 2.359, 0.136950
2023/06/19 05:02:05.908, True, 2.321, 0.137789
2023/06/19 05:02:06.412, True, 2.322, 0.136873
2023/06/19 05:02:06.908, True, 2.358, 0.138476
2023/06/19 05:02:07.412, True, 2.321, 0.138018
2023/06/19 05:02:07.916, True, 2.321, 0.138552
2023/06/19 05:02:08.412, True, 2.359, 0.136873
2023/06/19 05:02:08.915, True, 1.989, 0.136034
2023/06/19 05:02:09.419, True, 2.321, 0.137255
2023/06/19 05:02:09.916, True, 2.022, 0.137484
2023/06/19 05:02:10.420, True, 2.321, 0.137865
2023/06/19 05:02:10.924, True, 2.321, 0.138781
2023/06/19 05:02:11.420, True, 2.359, 0.139391
2023/06/19 05:02:11.924, True, 2.321, 0.135042
2023/06/19 05:02:12.427, True, 1.990, 0.138857
2023/06/19 05:02:12.924, True, 2.360, 0.137942
2023/06/19 05:02:13.428, True, 2.320, 0.139162
2023/06/19 05:02:13.932, True, 2.321, 0.137789
2023/06/19 05:02:14.428, True, 2.359, 0.140078
2023/06/19 05:02:14.932, True, 2.321, 0.137713
2023/06/19 05:02:15.436, True, 2.321, 0.138247
2023/06/19 05:02:15.931, True, 2.359, 0.138323
2023/06/19 05:02:16.435, True, 2.321, 0.138628
2023/06/19 05:02:16.940, True, 2.321, 0.138247
2023/06/19 05:02:17.436, True, 2.359, 0.138399
2023/06/19 05:02:17.939, True, 2.321, 0.137942
2023/06/19 05:02:18.443, True, 2.321, 0.139239
2023/06/19 05:02:18.948, True, 2.322, 0.137636
2023/06/19 05:02:19.443, True, 2.360, 0.138933
2023/06/19 05:02:19.947, True, 2.319, 0.136187
2023/06/19 05:02:20.452, True, 2.321, 0.137331
2023/06/19 05:02:20.948, True, 2.022, 0.138552
2023/06/19 05:02:21.451, True, 2.321, 0.137026
2023/06/19 05:02:21.955, True, 2.653, 0.138247
2023/06/19 05:02:22.451, True, 2.022, 0.137026
2023/06/19 05:02:22.955, True, 2.322, 0.137636
2023/06/19 05:02:23.451, True, 2.358, 0.138857
2023/06/19 05:02:23.955, True, 2.321, 0.136721
2023/06/19 05:02:24.460, True, 2.324, 0.137942
2023/06/19 05:02:24.963, True, 2.319, 0.138247
2023/06/19 05:02:25.459, True, 2.021, 0.138247
2023/06/19 05:02:25.963, True, 2.654, 0.136034
2023/06/19 05:02:26.468, True, 2.325, 0.136416
2023/06/19 05:02:26.964, True, 2.018, 0.137789
2023/06/19 05:02:27.468, True, 2.321, 0.138247
2023/06/19 05:02:27.971, True, 2.326, 0.140078
2023/06/19 05:02:28.476, True, 2.319, 0.139239
2023/06/19 05:02:28.972, True, 2.356, 0.136110
2023/06/19 05:02:29.475, True, 2.326, 0.137331
2023/06/19 05:02:29.980, True, 2.322, 0.137713
2023/06/19 05:02:30.475, True, 2.353, 0.138018
2023/06/19 05:02:30.979, True, 2.324, 0.137026
2023/06/19 05:02:31.484, True, 2.321, 0.137331
2023/06/19 05:02:31.980, True, 2.357, 0.139696
2023/06/19 05:02:32.484, True, 1.989, 0.136645
2023/06/19 05:02:32.988, True, 2.322, 0.136797
2023/06/19 05:02:33.483, True, 2.022, 0.136645
2023/06/19 05:02:33.988, True, 2.321, 0.137102
2023/06/19 05:02:34.492, True, 2.320, 0.135729
2023/06/19 05:02:34.988, True, 2.021, 0.137484
2023/06/19 05:02:35.492, True, 2.324, 0.135424
2023/06/19 05:02:35.995, True, 2.322, 0.134203
2023/06/19 05:02:36.500, True, 2.318, 0.138552
2023/06/19 05:02:36.995, True, 2.358, 0.135882
2023/06/19 05:02:37.500, True, 1.990, 0.138476
2023/06/19 05:02:38.004, True, 2.321, 0.136187
2023/06/19 05:02:38.499, True, 2.358, 0.136873
2023/06/19 05:02:39.003, True, 2.326, 0.135576
2023/06/19 05:02:39.508, True, 2.321, 0.136721
2023/06/19 05:02:40.011, True, 2.318, 0.136950
2023/06/19 05:02:40.508, True, 2.359, 0.136492
2023/06/19 05:02:41.011, True, 2.321, 0.136721
2023/06/19 05:02:41.508, True, 2.363, 0.137179
2023/06/19 05:02:42.012, True, 2.317, 0.137484
2023/06/19 05:02:42.516, True, 2.321, 0.138552
2023/06/19 05:02:43.012, True, 2.025, 0.136645
2023/06/19 05:02:43.516, True, 2.321, 0.137102
2023/06/19 05:02:44.020, True, 1.987, 0.136873
2023/06/19 05:02:44.516, True, 2.362, 0.137407
2023/06/19 05:02:45.020, True, 1.987, 0.135500
2023/06/19 05:02:45.524, True, 2.321, 0.136950
2023/06/19 05:02:46.020, True, 2.359, 0.137484
2023/06/19 05:02:46.524, True, 2.321, 0.135729
2023/06/19 05:02:47.027, True, 2.321, 0.138476
2023/06/19 05:02:47.524, True, 2.359, 0.134890
2023/06/19 05:02:48.028, True, 2.321, 0.136263
2023/06/19 05:02:48.531, True, 2.321, 0.135958
2023/06/19 05:02:49.028, True, 2.359, 0.136339
2023/06/19 05:02:49.532, True, 2.321, 0.139467
2023/06/19 05:02:50.036, True, 2.321, 0.135882
2023/06/19 05:02:50.532, True, 2.358, 0.135882
2023/06/19 05:02:51.036, True, 2.321, 0.137331
2023/06/19 05:02:51.540, True, 1.993, 0.137331
2023/06/19 05:02:52.036, True, 2.355, 0.133745
2023/06/19 05:02:52.540, True, 2.321, 0.136797
2023/06/19 05:02:53.044, True, 2.323, 0.136721
2023/06/19 05:02:53.539, True, 2.358, 0.135958
2023/06/19 05:02:54.043, True, 2.321, 0.136492
2023/06/19 05:02:54.548, True, 1.989, 0.134661
2023/06/19 05:02:55.043, True, 2.022, 0.135729
2023/06/19 05:02:55.548, True, 2.323, 0.136645
2023/06/19 05:02:56.052, True, 2.319, 0.134737
2023/06/19 05:02:56.548, True, 2.359, 0.137865
2023/06/19 05:02:57.051, True, 1.990, 0.135653
2023/06/19 05:02:57.556, True, 2.321, 0.134966
2023/06/19 05:02:58.051, True, 2.361, 0.139849
2023/06/19 05:02:58.556, True, 1.988, 0.135958
2023/06/19 05:02:59.059, True, 2.322, 0.135348
2023/06/19 05:02:59.564, True, 2.321, 0.136263
2023/06/19 05:03:00.059, True, 2.025, 0.136187
2023/06/19 05:03:00.564, True, 2.317, 0.136492
2023/06/19 05:03:01.067, True, 2.322, 0.137179
2023/06/19 05:03:01.564, True, 2.358, 0.136950
2023/06/19 05:03:02.068, True, 1.991, 0.135805
2023/06/19 05:03:02.564, True, 2.357, 0.137026
2023/06/19 05:03:03.067, True, 2.321, 0.135882
2023/06/19 05:03:03.572, True, 1.990, 0.136034
2023/06/19 05:03:04.067, True, 2.358, 0.135500
2023/06/19 05:03:04.572, True, 1.991, 0.136645
2023/06/19 05:03:05.076, True, 2.319, 0.137255
2023/06/19 05:03:05.579, True, 1.990, 0.137026
2023/06/19 05:03:06.076, True, 2.358, 0.140764
2023/06/19 05:03:06.580, True, 2.322, 0.136263
2023/06/19 05:03:07.084, True, 2.320, 0.136416
2023/06/19 05:03:07.580, True, 2.021, 0.134661
2023/06/19 05:03:08.083, True, 2.323, 0.138094
2023/06/19 05:03:08.588, True, 2.319, 0.136416
2023/06/19 05:03:09.083, True, 2.359, 0.133516
2023/06/19 05:03:09.587, True, 2.322, 0.135348
2023/06/19 05:03:10.092, True, 2.321, 0.136187
2023/06/19 05:03:10.588, True, 2.359, 0.135882
2023/06/19 05:03:11.091, True, 2.323, 0.135119
2023/06/19 05:03:11.595, True, 2.319, 0.134508
2023/06/19 05:03:12.092, True, 2.362, 0.136110
2023/06/19 05:03:12.595, True, 2.317, 0.137865
2023/06/19 05:03:13.100, True, 2.653, 0.137179
2023/06/19 05:03:13.595, True, 2.359, 0.137407
2023/06/19 05:03:14.100, True, 1.990, 0.135195
2023/06/19 05:03:14.603, True, 2.653, 0.136187
2023/06/19 05:03:15.100, True, 2.358, 0.133516
2023/06/19 05:03:15.603, True, 2.325, 0.135729
2023/06/19 05:03:16.108, True, 2.318, 0.136492
2023/06/19 05:03:16.611, True, 2.321, 0.137636
2023/06/19 05:03:17.107, True, 2.359, 0.136263
2023/06/19 05:03:17.611, True, 2.322, 0.134585
2023/06/19 05:03:18.115, True, 2.321, 0.136187
2023/06/19 05:03:18.611, True, 2.359, 0.133745
2023/06/19 05:03:19.115, True, 2.653, 0.135119
2023/06/19 05:03:19.619, True, 2.321, 0.136568
2023/06/19 05:03:20.115, True, 2.360, 0.134432
2023/06/19 05:03:20.619, True, 2.321, 0.134661
2023/06/19 05:03:21.115, True, 2.362, 0.135500
2023/06/19 05:03:21.619, True, 2.317, 0.133135
2023/06/19 05:03:22.123, True, 2.323, 0.136339
2023/06/19 05:03:22.627, True, 2.320, 0.134356
2023/06/19 05:03:23.123, True, 2.359, 0.132982
2023/06/19 05:03:23.628, True, 2.323, 0.133822
2023/06/19 05:03:24.131, True, 2.651, 0.136645
2023/06/19 05:03:24.635, True, 2.323, 0.135042
2023/06/19 05:03:25.131, True, 2.362, 0.135576
2023/06/19 05:03:25.635, True, 1.985, 0.135271
2023/06/19 05:03:26.131, True, 2.359, 0.134737
2023/06/19 05:03:26.635, True, 2.324, 0.135882
2023/06/19 05:03:27.139, True, 2.321, 0.134966
2023/06/19 05:03:27.635, True, 2.020, 0.136110
2023/06/19 05:03:28.140, True, 2.325, 0.134051
2023/06/19 05:03:28.643, True, 2.318, 0.133822
2023/06/19 05:03:29.139, True, 2.361, 0.135882
2023/06/19 05:03:29.644, True, 2.323, 0.135424
2023/06/19 05:03:30.147, True, 2.318, 0.135653
2023/06/19 05:03:30.643, True, 2.359, 0.135576
2023/06/19 05:03:31.148, True, 2.322, 0.136492
2023/06/19 05:03:31.651, True, 2.652, 0.135729
2023/06/19 05:03:32.147, True, 2.359, 0.134279
2023/06/19 05:03:32.651, True, 2.322, 0.135500
2023/06/19 05:03:33.155, True, 2.321, 0.133669
2023/06/19 05:03:33.651, True, 2.359, 0.135424
2023/06/19 05:03:34.155, True, 2.321, 0.135729
2023/06/19 05:03:34.659, True, 2.321, 0.136110
2023/06/19 05:03:35.162, True, 2.321, 0.136873
2023/06/19 05:03:35.659, True, 2.359, 0.135805
2023/06/19 05:03:36.163, True, 2.653, 0.134279
2023/06/19 05:03:36.667, True, 1.989, 0.133669
2023/06/19 05:03:37.163, True, 2.359, 0.137331
2023/06/19 05:03:37.667, True, 2.653, 0.134356
2023/06/19 05:03:38.171, True, 2.321, 0.136110
2023/06/19 05:03:38.667, True, 2.359, 0.135424
2023/06/19 05:03:39.171, True, 2.323, 0.135348
2023/06/19 05:03:39.675, True, 2.319, 0.134432
2023/06/19 05:03:40.171, True, 2.359, 0.134432
2023/06/19 05:03:40.675, True, 1.990, 0.134051
2023/06/19 05:03:41.179, True, 2.322, 0.135958
2023/06/19 05:03:41.683, True, 2.321, 0.135348
2023/06/19 05:03:42.179, True, 2.022, 0.136110
2023/06/19 05:03:42.682, True, 2.321, 0.134813
2023/06/19 05:03:43.187, True, 2.321, 0.136034
2023/06/19 05:03:43.683, True, 2.359, 0.133745
2023/06/19 05:03:44.187, True, 2.321, 0.135119
2023/06/19 05:03:44.683, True, 2.359, 0.134279
2023/06/19 05:03:45.187, True, 2.321, 0.135882
2023/06/19 05:03:45.691, True, 2.321, 0.134432
2023/06/19 05:03:46.187, True, 2.696, 0.135271
2023/06/19 05:03:46.691, True, 2.321, 0.134661
2023/06/19 05:03:47.195, True, 2.324, 0.135576
2023/06/19 05:03:47.691, True, 2.356, 0.135805
2023/06/19 05:03:48.195, True, 2.322, 0.134661
2023/06/19 05:03:48.699, True, 2.321, 0.133898
2023/06/19 05:03:49.195, True, 2.362, 0.133593
2023/06/19 05:03:49.699, True, 2.318, 0.136110
2023/06/19 05:03:50.202, True, 1.990, 0.132372
2023/06/19 05:03:50.699, True, 2.359, 0.136568
2023/06/19 05:03:51.203, True, 2.321, 0.133669
2023/06/19 05:03:51.707, True, 2.326, 0.135348
2023/06/19 05:03:52.210, True, 2.317, 0.135882
2023/06/19 05:03:52.706, True, 2.359, 0.135729
2023/06/19 05:03:53.211, True, 2.653, 0.135271
2023/06/19 05:03:53.715, True, 2.321, 0.133974
2023/06/19 05:03:54.211, True, 2.021, 0.136187
2023/06/19 05:03:54.715, True, 2.322, 0.134279
2023/06/19 05:03:55.219, True, 2.321, 0.135653
2023/06/19 05:03:55.715, True, 2.022, 0.134508
2023/06/19 05:03:56.219, True, 2.322, 0.134585
2023/06/19 05:03:56.723, True, 2.321, 0.135042
2023/06/19 05:03:57.219, True, 2.022, 0.134813
2023/06/19 05:03:57.723, True, 2.320, 0.134432
2023/06/19 05:03:58.227, True, 1.991, 0.134432
2023/06/19 05:03:58.731, True, 2.321, 0.135729
2023/06/19 05:03:59.235, True, 2.321, 0.133516
2023/06/19 05:03:59.731, True, 2.358, 0.131304
2023/06/19 05:04:00.234, True, 2.655, 0.134127
2023/06/19 05:04:00.731, True, 2.022, 0.134051
2023/06/19 05:04:01.235, True, 2.319, 0.134279
2023/06/19 05:04:01.739, True, 2.321, 0.136492
2023/06/19 05:04:02.234, True, 2.025, 0.133135
2023/06/19 05:04:02.739, True, 2.317, 0.132448
2023/06/19 05:04:03.243, True, 2.323, 0.134585
2023/06/19 05:04:03.747, True, 2.319, 0.134432
2023/06/19 05:04:04.243, True, 2.363, 0.133364
2023/06/19 05:04:04.747, True, 2.317, 0.135882
2023/06/19 05:04:05.251, True, 2.321, 0.135424
2023/06/19 05:04:05.747, True, 2.695, 0.133669
2023/06/19 05:04:06.251, True, 2.321, 0.134585
2023/06/19 05:04:06.755, True, 2.321, 0.134356
2023/06/19 05:04:07.251, True, 2.359, 0.133440
2023/06/19 05:04:07.755, True, 2.321, 0.133898
2023/06/19 05:04:08.259, True, 2.321, 0.134127
2023/06/19 05:04:08.763, True, 2.321, 0.135119
2023/06/19 05:04:09.259, True, 2.360, 0.132677
2023/06/19 05:04:09.763, True, 2.321, 0.134508
2023/06/19 05:04:10.267, True, 2.653, 0.134813